Regional Weather Roundup
Issued by NWS

Home | Current Version | Previous Version | Text Only | Print | Product List | Glossary Off
Versions: 1 2 3 4 5 6 7 8 9 10 11 12 13 14 15 16 17 18 19 20 21 22 23 24 25 26 27 28 29 30 31 32 33 34 35 36 37 38 39 40 41 42 43 44 45 46 47 48 49 50

000
ASUS43 KLMK 050202
RWRKY
KENTUCKY REGIONAL WEATHER ROUNDUP
NATIONAL WEATHER SERVICE LOUISVILLE KY
1000 PM EDT TUE AUG 04 2015

NOTE "FAIR" INDICATES FEW OR NO CLOUDS BELOW 12,000 FEET
WITH NO SIGNIFICANT WEATHER AND/OR OBSTRUCTIONS TO VISIBILITY.

KYZ001>023-026-027-061>063-070>075-050300-
WESTERN AND SOUTH CENTRAL KENTUCKY

CITY           SKY/WX    TMP DP  RH WIND       PRES   REMARKS
PADUCAH        CLOUDY    79  69  71 CALM      29.98R
HENDERSON      CLOUDY    70  66  88 NE6       29.98R
OWENSBORO      CLOUDY    73  70  91 S7        30.00R
HOPKINSVILLE   MOCLDY    78  70  77 N8        30.01R
BOWLING GREEN  CLOUDY    78  70  76 CALM      30.03R
GLASGOW        HVY RAIN  75  66  73 NE9       30.06R
$$

KYZ024-025-028>034-038-045-046-053-050300-
NORTH CENTRAL KENTUCKY

CITY           SKY/WX    TMP DP  RH WIND       PRES   REMARKS
LOUISVILLE/SDF CLOUDY    72  68  87 SE8       30.00F
LOUISVILLE/LOU CLOUDY    71  68  90 NE3       30.01F
FORT KNOX      CLOUDY    69  67  94 E6        29.99F
$$

KYZ035>037-039>044-047>052-055>060-089>105-050300-
NORTHEAST KENTUCKY

CITY           SKY/WX    TMP DP  RH WIND       PRES   REMARKS
LEXINGTON      TSTM      68  66  93 W7G22     30.09R
COVINGTON      CLOUDY    71  63  75 SW3       30.03R
FRANKFORT      LGT RAIN  68  65  90 SW6       30.06F
$$

KYZ054-064>069-076>088-106>120-050300-
SOUTHEAST KENTUCKY

CITY           SKY/WX    TMP DP  RH WIND       PRES   REMARKS
JACKSON        FOG       69  67  93 CALM      30.07F VSB 1/2
LONDON         TSTM      73  65  75 N3        30.10R
SOMERSET       NOT AVBL
MIDDLESBORO    CLOUDY    74  69  86 CALM      30.10R
MONTICELLO     CLOUDY    72  71  96 CALM      30.10R
$$



USA.gov is the U.S. government's official web portal to all federal, state and local government web resources and services.